Year,Month,Day,Hour,Minute,Value (Times are PST for temperature in C)
2005,04,26,00,01,11.80
2005,04,26,00,02,11.80
2005,04,26,00,03,11.80
2005,04,26,00,04,11.80
2005,04,26,00,05,11.80
2005,04,26,00,06,11.80
2005,04,26,00,07,11.80
2005,04,26,00,08,11.90
2005,04,26,00,09,11.90
2005,04,26,00,10,11.90
2005,04,26,00,11,12.00
2005,04,26,00,12,11.90
2005,04,26,00,13,11.90
2005,04,26,00,14,12.00
2005,04,26,00,15,11.90
2005,04,26,00,16,12.00
2005,04,26,00,17,12.00
2005,04,26,00,18,11.90
2005,04,26,00,19,11.90
2005,04,26,00,20,11.90
2005,04,26,00,21,11.80
2005,04,26,00,22,11.90
2005,04,26,00,23,11.90
2005,04,26,00,24,11.80
2005,04,26,00,25,11.80
2005,04,26,00,26,11.90
2005,04,26,00,27,12.00
2005,04,26,00,28,12.00
2005,04,26,00,29,12.00
2005,04,26,00,30,12.00
2005,04,26,00,31,11.90
2005,04,26,00,32,11.90
2005,04,26,00,33,11.90
2005,04,26,00,34,11.80
2005,04,26,00,35,11.80
2005,04,26,00,36,11.80
2005,04,26,00,37,11.70
2005,04,26,00,38,11.70
2005,04,26,00,39,11.60
2005,04,26,00,40,11.60
2005,04,26,00,41,11.70
2005,04,26,00,42,11.70
2005,04,26,00,43,11.70
2005,04,26,00,44,11.60
2005,04,26,00,45,11.60
2005,04,26,00,46,11.70
2005,04,26,00,47,11.70
2005,04,26,00,48,11.70
2005,04,26,00,49,11.70
2005,04,26,00,50,11.70
2005,04,26,00,51,11.60
2005,04,26,00,52,11.60
2005,04,26,00,53,11.50
2005,04,26,00,54,11.50
2005,04,26,00,55,11.40
2005,04,26,00,56,11.40
2005,04,26,00,57,11.40
2005,04,26,00,58,11.40
2005,04,26,00,59,11.40
2005,04,26,01,00,11.40
2005,04,26,01,01,11.40
2005,04,26,01,02,11.40
2005,04,26,01,03,11.40
2005,04,26,01,04,11.40
2005,04,26,01,05,11.40
2005,04,26,01,06,11.40
2005,04,26,01,07,11.40
2005,04,26,01,08,11.40
2005,04,26,01,09,11.40
2005,04,26,01,10,11.30
2005,04,26,01,11,11.30
2005,04,26,01,12,11.30
2005,04,26,01,13,11.40
2005,04,26,01,14,11.40
2005,04,26,01,15,11.40
2005,04,26,01,16,11.40
2005,04,26,01,17,11.40
2005,04,26,01,18,11.40
2005,04,26,01,19,11.30
2005,04,26,01,20,11.30
2005,04,26,01,21,11.30
2005,04,26,01,22,11.20
2005,04,26,01,23,11.20
2005,04,26,01,24,11.20
2005,04,26,01,25,11.20
2005,04,26,01,26,11.20
2005,04,26,01,27,11.20
2005,04,26,01,28,11.20
2005,04,26,01,29,11.20
2005,04,26,01,30,11.20
2005,04,26,01,31,11.20
2005,04,26,01,32,11.20
2005,04,26,01,33,11.20
2005,04,26,01,34,11.20
2005,04,26,01,35,11.20
2005,04,26,01,36,11.10
2005,04,26,01,37,11.10
2005,04,26,01,38,11.10
2005,04,26,01,39,11.20
2005,04,26,01,40,11.30
2005,04,26,01,41,11.30
2005,04,26,01,42,11.30
2005,04,26,01,43,11.30
2005,04,26,01,44,11.30
2005,04,26,01,45,11.30
2005,04,26,01,46,11.20
2005,04,26,01,47,11.30
2005,04,26,01,48,11.30
2005,04,26,01,49,11.30
2005,04,26,01,50,11.20
2005,04,26,01,51,11.20
2005,04,26,01,52,11.20
2005,04,26,01,53,11.30
2005,04,26,01,54,11.40
2005,04,26,01,55,11.40
2005,04,26,01,56,11.40
2005,04,26,01,57,11.40
2005,04,26,01,58,11.40
2005,04,26,01,59,11.40
2005,04,26,02,00,11.40
2005,04,26,02,01,11.40
2005,04,26,02,02,11.40
2005,04,26,02,03,11.40
2005,04,26,02,04,11.30
2005,04,26,02,05,11.30
2005,04,26,02,06,11.30
2005,04,26,02,07,11.40
2005,04,26,02,08,11.40
2005,04,26,02,09,11.40
2005,04,26,02,10,11.40
2005,04,26,02,11,11.40
2005,04,26,02,12,11.40
2005,04,26,02,13,11.40
2005,04,26,02,14,11.40
2005,04,26,02,15,11.40
2005,04,26,02,16,11.40
2005,04,26,02,17,11.40
2005,04,26,02,18,11.40
2005,04,26,02,19,11.30
2005,04,26,02,20,11.30
2005,04,26,02,21,11.40
2005,04,26,02,22,11.30
2005,04,26,02,23,11.30
2005,04,26,02,24,11.30
2005,04,26,02,25,11.30
2005,04,26,02,26,11.40
2005,04,26,02,27,11.40
2005,04,26,02,28,11.40
2005,04,26,02,29,11.40
2005,04,26,02,30,11.40
2005,04,26,02,31,11.40
2005,04,26,02,32,11.40
2005,04,26,02,33,11.40
2005,04,26,02,34,11.40
2005,04,26,02,35,11.40
2005,04,26,02,36,11.40
2005,04,26,02,37,11.40
2005,04,26,02,38,11.40
2005,04,26,02,39,11.40
2005,04,26,02,40,11.50
2005,04,26,02,41,11.60
2005,04,26,02,42,11.60
2005,04,26,02,43,11.60
2005,04,26,02,44,11.60
2005,04,26,02,45,11.60
2005,04,26,02,46,11.60
2005,04,26,02,47,11.60
2005,04,26,02,48,11.60
2005,04,26,02,49,11.60
2005,04,26,02,50,11.60
2005,04,26,02,51,11.60
2005,04,26,02,52,11.60
2005,04,26,02,53,11.60
2005,04,26,02,54,11.70
2005,04,26,02,55,11.70
2005,04,26,02,56,11.70
2005,04,26,02,57,11.70
2005,04,26,02,58,11.70
2005,04,26,02,59,11.70
2005,04,26,03,00,11.70
2005,04,26,03,01,11.70
2005,04,26,03,02,11.70
2005,04,26,03,03,11.70
2005,04,26,03,04,11.60
2005,04,26,03,05,11.60
2005,04,26,03,06,11.60
2005,04,26,03,07,11.60
2005,04,26,03,08,11.60
2005,04,26,03,09,11.60
2005,04,26,03,10,11.60
2005,04,26,03,11,11.60
2005,04,26,03,12,11.50
2005,04,26,03,13,11.50
2005,04,26,03,14,11.60
2005,04,26,03,15,11.50
2005,04,26,03,16,11.40
2005,04,26,03,17,11.40
2005,04,26,03,18,11.40
2005,04,26,03,19,11.40
2005,04,26,03,20,11.30
2005,04,26,03,21,11.40
2005,04,26,03,22,11.40
2005,04,26,03,23,11.40
2005,04,26,03,24,11.40
2005,04,26,03,25,11.40
2005,04,26,03,26,11.30
2005,04,26,03,27,11.40
2005,04,26,03,28,11.40
2005,04,26,03,29,11.40
2005,04,26,03,30,11.40
2005,04,26,03,31,11.40
2005,04,26,03,32,11.30
2005,04,26,03,33,11.30
2005,04,26,03,34,11.30
2005,04,26,03,35,11.30
2005,04,26,03,36,11.20
2005,04,26,03,37,11.20
2005,04,26,03,38,11.20
2005,04,26,03,39,11.20
2005,04,26,03,40,11.20
2005,04,26,03,41,11.30
2005,04,26,03,42,11.30
2005,04,26,03,43,11.30
2005,04,26,03,44,11.20
2005,04,26,03,45,11.20
2005,04,26,03,46,11.20
2005,04,26,03,47,11.20
2005,04,26,03,48,11.10
2005,04,26,03,49,11.10
2005,04,26,03,50,11.00
2005,04,26,03,51,10.90
2005,04,26,03,52,10.90
2005,04,26,03,53,10.80
2005,04,26,03,54,10.80
2005,04,26,03,55,10.80
2005,04,26,03,56,10.70
2005,04,26,03,57,10.70
2005,04,26,03,58,10.70
2005,04,26,03,59,10.70
2005,04,26,04,00,10.80
2005,04,26,04,01,10.80
2005,04,26,04,02,10.80
2005,04,26,04,03,10.80
2005,04,26,04,04,10.70
2005,04,26,04,05,10.70
2005,04,26,04,06,10.70
2005,04,26,04,07,10.70
2005,04,26,04,08,10.70
2005,04,26,04,09,10.60
2005,04,26,04,10,10.60
2005,04,26,04,11,10.60
2005,04,26,04,12,10.70
2005,04,26,04,13,10.70
2005,04,26,04,14,10.70
2005,04,26,04,15,10.70
2005,04,26,04,16,10.70
2005,04,26,04,17,10.70
2005,04,26,04,18,10.70
2005,04,26,04,19,10.70
2005,04,26,04,20,10.80
2005,04,26,04,21,10.80
2005,04,26,04,22,10.80
2005,04,26,04,23,10.80
2005,04,26,04,24,10.80
2005,04,26,04,25,10.80
2005,04,26,04,26,10.90
2005,04,26,04,27,10.90
2005,04,26,04,28,10.80
2005,04,26,04,29,10.80
2005,04,26,04,30,10.80
2005,04,26,04,31,10.80
2005,04,26,04,32,10.80
2005,04,26,04,33,10.80
2005,04,26,04,34,10.80
2005,04,26,04,35,10.80
2005,04,26,04,36,10.80
2005,04,26,04,37,10.70
2005,04,26,04,38,10.70
2005,04,26,04,39,10.70
2005,04,26,04,40,10.70
2005,04,26,04,41,10.70
2005,04,26,04,42,10.70
2005,04,26,04,43,10.70
2005,04,26,04,44,10.70
2005,04,26,04,45,10.60
2005,04,26,04,46,10.60
2005,04,26,04,47,10.60
2005,04,26,04,48,10.60
2005,04,26,04,49,10.50
2005,04,26,04,50,10.40
2005,04,26,04,51,10.40
2005,04,26,04,52,10.40
2005,04,26,04,53,10.40
2005,04,26,04,54,10.40
2005,04,26,04,55,10.40
2005,04,26,04,56,10.40
2005,04,26,04,57,10.40
2005,04,26,04,58,10.40
2005,04,26,04,59,10.40
2005,04,26,05,00,10.40
2005,04,26,05,01,10.40
2005,04,26,05,02,10.40
2005,04,26,05,03,10.40
2005,04,26,05,04,10.40
2005,04,26,05,05,10.40
2005,04,26,05,06,10.40
2005,04,26,05,07,10.40
2005,04,26,05,08,10.40
2005,04,26,05,09,10.40
2005,04,26,05,10,10.40
2005,04,26,05,11,10.40
2005,04,26,05,12,10.40
2005,04,26,05,13,10.40
2005,04,26,05,14,10.40
2005,04,26,05,15,10.40
2005,04,26,05,16,10.50
2005,04,26,05,17,10.50
2005,04,26,05,18,10.60
2005,04,26,05,19,10.60
2005,04,26,05,20,10.70
2005,04,26,05,21,10.60
2005,04,26,05,22,10.50
2005,04,26,05,23,10.40
2005,04,26,05,24,10.40
2005,04,26,05,25,10.40
2005,04,26,05,26,10.30
2005,04,26,05,27,10.20
2005,04,26,05,28,10.10
2005,04,26,05,29,10.00
2005,04,26,05,30,10.00
2005,04,26,05,31,10.10
2005,04,26,05,32,10.00
2005,04,26,05,33,9.90
2005,04,26,05,34,9.90
2005,04,26,05,35,9.90
2005,04,26,05,36,9.90
2005,04,26,05,37,9.80
2005,04,26,05,38,9.80
2005,04,26,05,39,9.70
2005,04,26,05,40,9.70
2005,04,26,05,41,9.70
2005,04,26,05,42,9.70
2005,04,26,05,43,9.70
2005,04,26,05,44,9.60
2005,04,26,05,45,9.60
2005,04,26,05,46,9.70
2005,04,26,05,47,9.70
2005,04,26,05,48,9.70
2005,04,26,05,49,9.70
2005,04,26,05,50,9.70
2005,04,26,05,51,9.60
2005,04,26,05,52,9.70
2005,04,26,05,53,9.70
2005,04,26,05,54,9.70
2005,04,26,05,55,9.60
2005,04,26,05,56,9.60
2005,04,26,05,57,9.60
2005,04,26,05,58,9.50
2005,04,26,05,59,9.70
2005,04,26,06,00,9.70
2005,04,26,06,01,9.70
2005,04,26,06,02,9.70
2005,04,26,06,03,9.70
2005,04,26,06,04,9.70
2005,04,26,06,05,9.70
2005,04,26,06,06,9.70
2005,04,26,06,07,9.70
2005,04,26,06,08,9.70
2005,04,26,06,09,9.60
2005,04,26,06,10,9.60
2005,04,26,06,11,9.60
2005,04,26,06,12,9.70
2005,04,26,06,13,9.70
2005,04,26,06,14,9.70
2005,04,26,06,15,9.70
2005,04,26,06,16,9.70
2005,04,26,06,17,9.80
2005,04,26,06,18,9.90
2005,04,26,06,19,9.90
2005,04,26,06,20,9.90
2005,04,26,06,21,9.90
2005,04,26,06,22,9.90
2005,04,26,06,23,9.90
2005,04,26,06,24,9.80
2005,04,26,06,25,9.90
2005,04,26,06,26,9.90
2005,04,26,06,27,9.90
2005,04,26,06,28,9.90
2005,04,26,06,29,10.00
2005,04,26,06,30,10.10
2005,04,26,06,31,10.10
2005,04,26,06,32,10.10
2005,04,26,06,33,10.10
2005,04,26,06,34,10.20
2005,04,26,06,35,10.20
2005,04,26,06,36,10.30
2005,04,26,06,37,10.30
2005,04,26,06,38,10.40
2005,04,26,06,39,10.40
2005,04,26,06,40,10.40
2005,04,26,06,41,10.30
2005,04,26,06,42,10.40
2005,04,26,06,43,10.40
2005,04,26,06,44,10.50
2005,04,26,06,45,10.60
2005,04,26,06,46,10.50
2005,04,26,06,47,10.50
2005,04,26,06,48,10.40
2005,04,26,06,49,10.40
2005,04,26,06,50,10.40
2005,04,26,06,51,10.40
2005,04,26,06,52,10.50
2005,04,26,06,53,10.60
2005,04,26,06,54,10.60
2005,04,26,06,55,10.70
2005,04,26,06,56,10.70
2005,04,26,06,57,10.80
2005,04,26,06,58,10.90
2005,04,26,06,59,11.00
2005,04,26,07,00,11.10
2005,04,26,07,01,11.20
2005,04,26,07,02,11.40
2005,04,26,07,03,11.50
2005,04,26,07,04,11.60
2005,04,26,07,05,11.60
2005,04,26,07,06,11.70
2005,04,26,07,07,11.70
2005,04,26,07,08,11.70
2005,04,26,07,09,11.80
2005,04,26,07,10,11.80
2005,04,26,07,11,11.70
2005,04,26,07,12,11.70
2005,04,26,07,13,11.70
2005,04,26,07,14,11.70
2005,04,26,07,15,11.70
2005,04,26,07,16,11.80
2005,04,26,07,17,11.80
2005,04,26,07,18,11.90
2005,04,26,07,19,12.00
2005,04,26,07,20,12.10
2005,04,26,07,21,12.10
2005,04,26,07,22,12.20
2005,04,26,07,23,12.20
2005,04,26,07,24,12.30
2005,04,26,07,25,12.30
2005,04,26,07,26,12.50
2005,04,26,07,27,12.60
2005,04,26,07,28,12.70
2005,04,26,07,29,12.80
2005,04,26,07,30,12.80
2005,04,26,07,31,12.80
2005,04,26,07,32,12.80
2005,04,26,07,33,12.80
2005,04,26,07,34,12.80
2005,04,26,07,35,12.90
2005,04,26,07,36,12.90
2005,04,26,07,37,13.00
2005,04,26,07,38,12.90
2005,04,26,07,39,12.90
2005,04,26,07,40,12.90
2005,04,26,07,41,12.90
2005,04,26,07,42,12.90
2005,04,26,07,43,12.90
2005,04,26,07,44,12.90
2005,04,26,07,45,13.00
2005,04,26,07,46,13.00
2005,04,26,07,47,13.00
2005,04,26,07,48,13.00
2005,04,26,07,49,13.00
2005,04,26,07,50,13.10
2005,04,26,07,51,13.10
2005,04,26,07,52,13.20
2005,04,26,07,53,13.20
2005,04,26,07,54,13.10
2005,04,26,07,55,13.00
2005,04,26,07,56,13.00
2005,04,26,07,57,13.00
2005,04,26,07,58,13.10
2005,04,26,07,59,13.00
2005,04,26,08,00,13.00
2005,04,26,08,01,13.10
2005,04,26,08,02,13.20
2005,04,26,08,03,13.30
2005,04,26,08,04,13.30
2005,04,26,08,05,13.40
2005,04,26,08,06,13.40
2005,04,26,08,07,13.40
2005,04,26,08,08,13.50
2005,04,26,08,09,13.60
2005,04,26,08,10,13.60
2005,04,26,08,11,13.70
2005,04,26,08,12,13.70
2005,04,26,08,13,13.70
2005,04,26,08,14,13.70
2005,04,26,08,15,13.70
2005,04,26,08,16,13.80
2005,04,26,08,17,13.80
2005,04,26,08,18,13.90
2005,04,26,08,19,14.00
2005,04,26,08,20,14.00
2005,04,26,08,21,14.10
2005,04,26,08,22,14.20
2005,04,26,08,23,14.20
2005,04,26,08,24,14.20
2005,04,26,08,25,14.20
2005,04,26,08,26,14.20
2005,04,26,08,27,14.20
2005,04,26,08,28,14.20
2005,04,26,08,29,14.20
2005,04,26,08,30,14.30
2005,04,26,08,31,14.50
2005,04,26,08,32,14.40
2005,04,26,08,33,14.20
2005,04,26,08,34,14.10
2005,04,26,08,35,14.00
2005,04,26,08,36,13.80
2005,04,26,08,37,13.70
2005,04,26,08,38,13.60
2005,04,26,08,39,13.60
2005,04,26,08,40,13.60
2005,04,26,08,41,13.50
2005,04,26,08,42,13.40
2005,04,26,08,43,13.40
2005,04,26,08,44,13.50
2005,04,26,08,45,13.60
2005,04,26,08,46,13.70
2005,04,26,08,47,13.70
2005,04,26,08,48,13.70
2005,04,26,08,49,13.80
2005,04,26,08,50,13.90
2005,04,26,08,51,13.90
2005,04,26,08,52,13.90
2005,04,26,08,53,14.10
2005,04,26,08,54,14.20
2005,04,26,08,55,14.20
2005,04,26,08,56,14.20
2005,04,26,08,57,14.30
2005,04,26,08,58,14.30
2005,04,26,08,59,14.40
2005,04,26,09,00,14.50
2005,04,26,09,01,14.60
2005,04,26,09,02,14.60
2005,04,26,09,03,14.50
2005,04,26,09,04,14.50
2005,04,26,09,05,14.60
2005,04,26,09,06,14.90
2005,04,26,09,07,14.90
2005,04,26,09,08,14.90
2005,04,26,09,09,15.00
2005,04,26,09,10,15.10
2005,04,26,09,11,15.30
2005,04,26,09,12,15.40
2005,04,26,09,13,15.40
2005,04,26,09,14,15.60
2005,04,26,09,15,15.70
2005,04,26,09,16,15.70
2005,04,26,09,17,15.50
2005,04,26,09,18,15.40
2005,04,26,09,19,15.30
2005,04,26,09,20,15.30
2005,04,26,09,21,15.50
2005,04,26,09,22,15.50
2005,04,26,09,23,15.50
2005,04,26,09,24,15.70
2005,04,26,09,25,15.80
2005,04,26,09,26,15.80
2005,04,26,09,27,15.60
2005,04,26,09,28,15.40
2005,04,26,09,29,15.20
2005,04,26,09,30,15.00
2005,04,26,09,31,14.70
2005,04,26,09,32,14.50
2005,04,26,09,33,14.40
2005,04,26,09,34,14.20
2005,04,26,09,35,14.20
2005,04,26,09,36,14.10
2005,04,26,09,37,14.00
2005,04,26,09,38,13.90
2005,04,26,09,39,13.80
2005,04,26,09,40,13.80
2005,04,26,09,41,13.80
2005,04,26,09,42,13.80
2005,04,26,09,43,13.80
2005,04,26,09,44,13.80
2005,04,26,09,45,13.70
2005,04,26,09,46,13.70
2005,04,26,09,47,13.60
2005,04,26,09,48,13.50
2005,04,26,09,49,13.40
2005,04,26,09,50,13.40
2005,04,26,09,51,13.40
2005,04,26,09,52,13.50
2005,04,26,09,53,13.80
2005,04,26,09,54,13.70
2005,04,26,09,55,13.60
2005,04,26,09,56,13.60
2005,04,26,09,57,13.70
2005,04,26,09,58,13.70
2005,04,26,09,59,13.70
2005,04,26,10,00,13.80
2005,04,26,10,01,13.80
2005,04,26,10,02,13.70
2005,04,26,10,03,13.80
2005,04,26,10,04,13.80
2005,04,26,10,05,13.90
2005,04,26,10,06,14.00
2005,04,26,10,07,14.00
2005,04,26,10,08,14.00
2005,04,26,10,09,14.10
2005,04,26,10,10,14.10
2005,04,26,10,11,14.00
2005,04,26,10,12,14.00
2005,04,26,10,13,14.00
2005,04,26,10,14,13.90
2005,04,26,10,15,13.90
2005,04,26,10,16,14.00
2005,04,26,10,17,14.20
2005,04,26,10,18,14.10
2005,04,26,10,19,14.00
2005,04,26,10,20,13.90
2005,04,26,10,21,13.80
2005,04,26,10,22,13.70
2005,04,26,10,23,13.70
2005,04,26,10,24,13.60
2005,04,26,10,25,13.50
2005,04,26,10,26,13.50
2005,04,26,10,27,13.50
2005,04,26,10,28,13.50
2005,04,26,10,29,13.40
2005,04,26,10,30,13.60
2005,04,26,10,31,13.80
2005,04,26,10,32,13.90
2005,04,26,10,33,13.80
2005,04,26,10,34,13.80
2005,04,26,10,35,13.80
2005,04,26,10,36,13.70
2005,04,26,10,37,13.70
2005,04,26,10,38,13.70
2005,04,26,10,39,13.60
2005,04,26,10,40,13.60
2005,04,26,10,41,13.60
2005,04,26,10,42,13.50
2005,04,26,10,43,13.50
2005,04,26,10,44,13.50
2005,04,26,10,45,13.40
2005,04,26,10,46,13.40
2005,04,26,10,47,13.30
2005,04,26,10,48,13.40
2005,04,26,10,49,13.40
2005,04,26,10,50,13.30
2005,04,26,10,51,13.30
2005,04,26,10,52,13.30
2005,04,26,10,53,13.40
2005,04,26,10,54,13.50
2005,04,26,10,55,13.70
2005,04,26,10,56,13.70
2005,04,26,10,57,14.00
2005,04,26,10,58,13.90
2005,04,26,10,59,13.80
2005,04,26,11,00,13.80
2005,04,26,11,01,13.70
2005,04,26,11,02,13.70
2005,04,26,11,03,13.70
2005,04,26,11,04,13.70
2005,04,26,11,05,13.70
2005,04,26,11,06,13.70
2005,04,26,11,07,13.70
2005,04,26,11,08,13.70
2005,04,26,11,09,13.80
2005,04,26,11,10,13.70
2005,04,26,11,11,13.80
2005,04,26,11,12,13.80
2005,04,26,11,13,13.80
2005,04,26,11,14,13.70
2005,04,26,11,15,13.70
2005,04,26,11,16,13.70
2005,04,26,11,17,13.70
2005,04,26,11,18,13.60
2005,04,26,11,19,13.60
2005,04,26,11,20,13.70
2005,04,26,11,21,13.70
2005,04,26,11,22,13.70
2005,04,26,11,23,13.60
2005,04,26,11,24,13.50
2005,04,26,11,25,13.50
2005,04,26,11,26,13.50
2005,04,26,11,27,13.50
2005,04,26,11,28,13.60
2005,04,26,11,29,13.60
2005,04,26,11,30,13.70
2005,04,26,11,31,13.70
2005,04,26,11,32,13.70
2005,04,26,11,33,13.90
2005,04,26,11,34,13.90
2005,04,26,11,35,13.90
2005,04,26,11,36,13.70
2005,04,26,11,37,13.70
2005,04,26,11,38,13.60
2005,04,26,11,39,13.70
2005,04,26,11,40,13.70
2005,04,26,11,41,13.70
2005,04,26,11,42,13.80
2005,04,26,11,43,13.80
2005,04,26,11,44,13.90
2005,04,26,11,45,13.80
2005,04,26,11,46,13.80
2005,04,26,11,47,13.90
2005,04,26,11,48,14.00
2005,04,26,11,49,13.90
2005,04,26,11,50,14.00
2005,04,26,11,51,14.00
2005,04,26,11,52,14.20
2005,04,26,11,53,14.00
2005,04,26,11,54,14.20
2005,04,26,11,55,14.40
2005,04,26,11,56,14.40
2005,04,26,11,57,14.50
2005,04,26,11,58,14.40
2005,04,26,11,59,14.30
2005,04,26,12,00,14.20
2005,04,26,12,01,14.30
2005,04,26,12,02,14.40
2005,04,26,12,03,14.40
2005,04,26,12,04,14.30
2005,04,26,12,05,14.50
2005,04,26,12,06,14.60
2005,04,26,12,07,14.50
2005,04,26,12,08,14.60
2005,04,26,12,09,14.70
2005,04,26,12,10,14.70
2005,04,26,12,11,14.90
2005,04,26,12,12,15.00
2005,04,26,12,13,15.00
2005,04,26,12,14,14.90
2005,04,26,12,15,14.70
2005,04,26,12,16,14.80
2005,04,26,12,17,14.70
2005,04,26,12,18,14.60
2005,04,26,12,19,14.60
2005,04,26,12,20,14.70
2005,04,26,12,21,14.60
2005,04,26,12,22,14.70
2005,04,26,12,23,14.70
2005,04,26,12,24,14.80
2005,04,26,12,25,14.70
2005,04,26,12,26,14.60
2005,04,26,12,27,14.60
2005,04,26,12,28,14.50
2005,04,26,12,29,14.60
2005,04,26,12,30,14.60
2005,04,26,12,31,14.60
2005,04,26,12,32,14.60
2005,04,26,12,33,14.60
2005,04,26,12,34,14.70
2005,04,26,12,35,14.80
2005,04,26,12,36,14.80
2005,04,26,12,37,14.90
2005,04,26,12,38,14.90
2005,04,26,12,39,14.70
2005,04,26,12,40,14.70
2005,04,26,12,41,14.80
2005,04,26,12,42,14.80
2005,04,26,12,43,14.90
2005,04,26,12,44,14.90
2005,04,26,12,45,15.00
2005,04,26,12,46,14.90
2005,04,26,12,47,14.90
2005,04,26,12,48,14.80
2005,04,26,12,49,14.90
2005,04,26,12,50,14.80
2005,04,26,12,51,14.90
2005,04,26,12,52,15.00
2005,04,26,12,53,15.10
2005,04,26,12,54,15.10
2005,04,26,12,55,15.20
2005,04,26,12,56,15.30
2005,04,26,12,57,15.20
2005,04,26,12,58,15.10
2005,04,26,12,59,15.20
2005,04,26,13,00,15.30
2005,04,26,13,01,15.50
2005,04,26,13,02,15.40
2005,04,26,13,03,15.50
2005,04,26,13,04,15.50
2005,04,26,13,05,15.30
2005,04,26,13,06,15.30
2005,04,26,13,07,15.40
2005,04,26,13,08,15.60
2005,04,26,13,09,15.80
2005,04,26,13,10,15.70
2005,04,26,13,11,15.60
2005,04,26,13,12,15.50
2005,04,26,13,13,15.50
2005,04,26,13,14,15.50
2005,04,26,13,15,15.50
2005,04,26,13,16,15.50
2005,04,26,13,17,15.50
2005,04,26,13,18,15.40
2005,04,26,13,19,15.30
2005,04,26,13,20,15.40
2005,04,26,13,21,15.30
2005,04,26,13,22,15.20
2005,04,26,13,23,15.20
2005,04,26,13,24,15.20
2005,04,26,13,25,15.30
2005,04,26,13,26,15.30
2005,04,26,13,27,15.30
2005,04,26,13,28,15.20
2005,04,26,13,29,15.20
2005,04,26,13,30,15.20
2005,04,26,13,31,15.20
2005,04,26,13,32,15.30
2005,04,26,13,33,15.20
2005,04,26,13,34,15.20
2005,04,26,13,35,15.20
2005,04,26,13,36,15.10
2005,04,26,13,37,15.10
2005,04,26,13,38,15.10
2005,04,26,13,39,15.10
2005,04,26,13,40,15.10
2005,04,26,13,41,15.00
2005,04,26,13,42,14.90
2005,04,26,13,43,14.70
2005,04,26,13,44,14.70
2005,04,26,13,45,14.60
2005,04,26,13,46,14.40
2005,04,26,13,47,14.50
2005,04,26,13,48,14.50
2005,04,26,13,49,14.50
2005,04,26,13,50,14.60
2005,04,26,13,51,14.60
2005,04,26,13,52,14.60
2005,04,26,13,53,14.50
2005,04,26,13,54,14.50
2005,04,26,13,55,14.40
2005,04,26,13,56,14.40
2005,04,26,13,57,14.50
2005,04,26,13,58,14.50
2005,04,26,13,59,14.50
2005,04,26,14,00,14.50
2005,04,26,14,01,14.50
2005,04,26,14,02,14.60
2005,04,26,14,03,14.60
2005,04,26,14,04,14.70
2005,04,26,14,05,14.70
2005,04,26,14,06,14.70
2005,04,26,14,07,14.70
2005,04,26,14,08,14.70
2005,04,26,14,09,14.80
2005,04,26,14,10,14.80
2005,04,26,14,11,14.80
2005,04,26,14,12,14.90
2005,04,26,14,13,14.70
2005,04,26,14,14,14.80
2005,04,26,14,15,14.90
2005,04,26,14,16,14.90
2005,04,26,14,17,14.90
2005,04,26,14,18,14.90
2005,04,26,14,19,14.90
2005,04,26,14,20,14.80
2005,04,26,14,21,14.80
2005,04,26,14,22,14.80
2005,04,26,14,23,14.80
2005,04,26,14,24,14.80
2005,04,26,14,25,14.80
2005,04,26,14,26,14.90
2005,04,26,14,27,15.00
2005,04,26,14,28,15.00
2005,04,26,14,29,15.10
2005,04,26,14,30,15.10
2005,04,26,14,31,15.10
2005,04,26,14,32,15.00
2005,04,26,14,33,15.10
2005,04,26,14,34,15.20
2005,04,26,14,35,15.30
2005,04,26,14,36,15.40
2005,04,26,14,37,15.50
2005,04,26,14,38,15.50
2005,04,26,14,39,15.60
2005,04,26,14,40,15.60
2005,04,26,14,41,15.60
2005,04,26,14,42,15.60
2005,04,26,14,43,15.70
2005,04,26,14,44,15.80
2005,04,26,14,45,15.80
2005,04,26,14,46,15.80
2005,04,26,14,47,15.90
2005,04,26,14,48,15.80
2005,04,26,14,49,15.80
2005,04,26,14,50,15.80
2005,04,26,14,51,15.80
2005,04,26,14,52,15.90
2005,04,26,14,53,15.90
2005,04,26,14,54,15.90
2005,04,26,14,55,16.10
2005,04,26,14,56,15.90
2005,04,26,14,57,15.80
2005,04,26,14,58,15.70
2005,04,26,14,59,15.50
2005,04,26,15,00,15.50
2005,04,26,15,01,15.60
2005,04,26,15,02,15.70
2005,04,26,15,03,15.70
2005,04,26,15,04,15.60
2005,04,26,15,05,15.60
2005,04,26,15,06,15.60
2005,04,26,15,07,15.50
2005,04,26,15,08,15.50
2005,04,26,15,09,15.60
2005,04,26,15,10,15.70
2005,04,26,15,11,15.80
2005,04,26,15,12,15.90
2005,04,26,15,13,16.10
2005,04,26,15,14,16.30
2005,04,26,15,15,16.40
2005,04,26,15,16,16.40
2005,04,26,15,17,16.50
2005,04,26,15,18,16.70
2005,04,26,15,19,16.80
2005,04,26,15,20,16.80
2005,04,26,15,21,16.80
2005,04,26,15,22,16.70
2005,04,26,15,23,16.70
2005,04,26,15,24,16.70
2005,04,26,15,25,16.70
2005,04,26,15,26,16.90
2005,04,26,15,27,17.00
2005,04,26,15,28,17.00
2005,04,26,15,29,17.10
2005,04,26,15,30,17.20
2005,04,26,15,31,17.30
2005,04,26,15,32,17.50
2005,04,26,15,33,17.60
2005,04,26,15,34,17.70
2005,04,26,15,35,17.70
2005,04,26,15,36,17.80
2005,04,26,15,37,17.80
2005,04,26,15,38,17.80
2005,04,26,15,39,17.70
2005,04,26,15,40,17.80
2005,04,26,15,41,18.00
2005,04,26,15,42,18.00
2005,04,26,15,43,17.80
2005,04,26,15,44,17.60
2005,04,26,15,45,17.50
2005,04,26,15,46,17.40
2005,04,26,15,47,17.40
2005,04,26,15,48,17.30
2005,04,26,15,49,17.30
2005,04,26,15,50,17.50
2005,04,26,15,51,17.60
2005,04,26,15,52,17.60
2005,04,26,15,53,17.60
2005,04,26,15,54,17.70
2005,04,26,15,55,17.60
2005,04,26,15,56,17.50
2005,04,26,15,57,17.60
2005,04,26,15,58,17.80
2005,04,26,15,59,18.00
2005,04,26,16,00,18.30
2005,04,26,16,01,18.60
2005,04,26,16,02,18.80
2005,04,26,16,03,18.70
2005,04,26,16,04,18.50
2005,04,26,16,05,18.50
2005,04,26,16,06,18.50
2005,04,26,16,07,18.50
2005,04,26,16,08,18.60
2005,04,26,16,09,18.70
2005,04,26,16,10,18.90
2005,04,26,16,11,19.00
2005,04,26,16,12,19.10
2005,04,26,16,13,19.20
2005,04,26,16,14,19.10
2005,04,26,16,15,19.20
2005,04,26,16,16,19.10
2005,04,26,16,17,19.20
2005,04,26,16,18,19.20
2005,04,26,16,19,19.30
2005,04,26,16,20,19.20
2005,04,26,16,21,19.00
2005,04,26,16,22,18.80
2005,04,26,16,23,18.70
2005,04,26,16,24,18.70
2005,04,26,16,25,19.00
2005,04,26,16,26,19.20
2005,04,26,16,27,19.40
2005,04,26,16,28,19.70
2005,04,26,16,29,19.90
2005,04,26,16,30,20.00
2005,04,26,16,31,20.00
2005,04,26,16,32,20.10
2005,04,26,16,33,20.10
2005,04,26,16,34,20.00
2005,04,26,16,35,20.10
2005,04,26,16,36,20.20
2005,04,26,16,37,20.30
2005,04,26,16,38,20.10
2005,04,26,16,39,20.10
2005,04,26,16,40,20.20
2005,04,26,16,41,20.20
2005,04,26,16,42,20.20
2005,04,26,16,43,20.10
2005,04,26,16,44,20.10
2005,04,26,16,45,20.00
2005,04,26,16,46,20.00
2005,04,26,16,47,20.10
2005,04,26,16,48,19.90
2005,04,26,16,49,19.50
2005,04,26,16,50,19.30
2005,04,26,16,51,19.30
2005,04,26,16,52,19.30
2005,04,26,16,53,19.30
2005,04,26,16,54,19.30
2005,04,26,16,55,19.30
2005,04,26,16,56,19.20
2005,04,26,16,57,19.20
2005,04,26,16,58,19.20
2005,04,26,16,59,19.20
2005,04,26,17,00,19.20
2005,04,26,17,01,19.10
2005,04,26,17,02,19.10
2005,04,26,17,03,19.00
2005,04,26,17,04,19.00
2005,04,26,17,05,19.00
2005,04,26,17,06,18.90
2005,04,26,17,07,18.90
2005,04,26,17,08,18.90
2005,04,26,17,09,18.90
2005,04,26,17,10,19.00
2005,04,26,17,11,18.90
2005,04,26,17,12,19.00
2005,04,26,17,13,19.00
2005,04,26,17,14,19.20
2005,04,26,17,15,19.30
2005,04,26,17,16,19.20
2005,04,26,17,17,19.00
2005,04,26,17,18,19.00
2005,04,26,17,19,19.00
2005,04,26,17,20,19.20
2005,04,26,17,21,19.30
2005,04,26,17,22,19.40